DW0268 Weather Reports


Display with metric or nautical units.
time (UTC)temp
F
wind
direction
speed
MPH
gust
MPH
rain 1hr
in
rain 24hr
in
rain mn
in
humidity
%
barometer
mb
20260905034512 84 207 0.0 0.0 0.00 0.00 0.00 77 1015.8
20260905033011 84 207 0.0 0.0 0.00 0.00 0.00 76 1016.0
20260905031511 83 207 0.0 0.0 0.00 0.00 0.00 78 1015.9
20260905030010 83 207 0.0 2.0 0.00 0.00 0.00 80 1016.1
20260905024509 83 207 0.0 2.0 0.00 0.00 0.00 80 1016.1
20260905023009 83 207 0.0 4.0 0.00 0.00 0.00 80 1016.1
20260905021508 86 173 0.0 0.0 0.00 0.00 0.00 75 1015.9
20260905020010 87 173 0.0 0.0 0.00 0.00 0.00 68 1015.7
20260905014507 89 173 0.0 1.0 0.00 0.00 0.00 64 1015.8
20260905013010 90 173 0.0 2.0 0.00 0.00 0.00 63 1015.6
20260905011513 91 173 0.0 3.0 0.00 0.00 0.00 61 1015.4
20260905010006 92 173 0.0 0.0 0.00 0.00 0.00 59 1015.4
20260905004505 93 173 0.0 0.0 0.00 0.00 0.00 58 1015.3
20260905003004 95 173 0.0 0.0 0.00 0.00 0.00 57 1015.1
20260905001509 96 173 0.0 0.0 0.00 0.00 0.00 59 1015.0
20260905000003 97 173 0.0 1.0 0.00 0.00 0.00 56 1014.9
20260904234502 98 173 0.0 1.0 0.00 0.00 0.00 56 1014.9
20260904233001 97 173 0.0 2.0 0.00 0.00 0.00 55 1014.9
20260904231600 97 173 0.0 3.0 0.00 0.00 0.00 53 1014.9
20260904230110 97 173 1.0 3.0 0.00 0.00 0.00 57 1015.0
20260904224559 97 188 2.0 4.0 0.00 0.00 0.00 55 1015.0
20260904223104 96 169 3.0 6.0 0.00 0.00 0.00 57 1015.0
20260904221603 95 182 2.0 4.0 0.00 0.00 0.00 62 1014.8
20260904220118 95 179 3.0 5.0 0.00 0.00 0.00 61 1014.9
20260904214555 96 157 3.0 8.0 0.00 0.00 0.00 56 1015.1
20260904213052 98 169 3.0 6.0 0.00 0.00 0.00 55 1015.1
20260904211550 98 225 3.0 7.0 0.00 0.00 0.00 56 1015.5
20260904210050 99 248 2.0 5.0 0.00 0.00 0.00 51 1015.6
20260904204550 99 132 2.0 8.0 0.00 0.00 0.00 53 1015.8
20260904203045 100 184 4.0 9.0 0.00 0.00 0.00 52 1015.9
20260904201551 99 65 1.0 9.0 0.00 0.00 0.00 51 1016.2
20260904200053 100 107 3.0 10.0 0.00 0.00 0.00 51 1016.5
20260904194547 99 175 3.0 8.0 0.00 0.00 0.00 51 1016.6
20260904193038 99 111 3.0 6.0 0.00 0.00 0.00 51 1016.8
20260904191535 98 221 3.0 11.0 0.00 0.00 0.00 53 1017.0
20260904190033 98 209 5.0 9.0 0.00 0.00 0.00 53 1017.2
20260904184600 98 251 3.0 7.0 0.00 0.00 0.00 55 1017.4
20260904183038 97 30 1.0 8.0 0.00 0.00 0.00 56 1017.6
20260904181530 96 277 0.0 7.0 0.00 0.00 0.00 57 1017.7
20260904180027 97 246 6.0 10.0 0.00 0.00 0.00 59 1017.6
20260904174554 97 115 2.0 6.0 0.00 0.00 0.00 58 1017.8
20260904173022 97 249 1.0 5.0 0.00 0.00 0.00 56 1017.8
20260904171521 97 193 3.0 6.0 0.00 0.00 0.00 57 1018.1
20260904170035 96 203 1.0 5.0 0.00 0.00 0.00 60 1018.2
20260904164516 95 261 2.0 6.0 0.00 0.00 0.00 61 1018.2
20260904163011 94 275 2.0 4.0 0.00 0.00 0.00 61 1018.3
20260904161507 94 229 3.0 6.0 0.00 0.00 0.00 63 1018.4
20260904160004 93 240 3.0 5.0 0.00 0.00 0.00 65 1018.4
20260904154559 93 255 2.0 5.0 0.00 0.00 0.00 66 1018.3
20260904153125 92 227 2.0 4.0 0.00 0.00 0.00 67 1018.5
20260904151554 90 273 1.0 4.0 0.00 0.00 0.00 68 1018.3
20260904150047 89 273 2.0 4.0 0.00 0.00 0.00 72 1018.2
20260904144544 88 273 0.0 2.0 0.00 0.00 0.00 76 1018.1
20260904143041 88 273 1.0 3.0 0.00 0.00 0.00 77 1018.0
20260904141539 87 42 0.0 3.0 0.00 0.00 0.00 78 1017.8
20260904140039 86 46 0.0 2.0 0.00 0.00 0.00 78 1017.9
20260904134531 85 46 0.0 2.0 0.00 0.00 0.00 82 1018.1
20260904133029 82 46 0.0 2.0 0.00 0.00 0.00 88 1017.9
20260904131525 80 46 0.0 2.0 0.00 0.00 0.00 94 1017.9
20260904130025 78 46 0.0 0.0 0.00 0.00 0.00 95 1018.1
20260904124527 77 46 0.0 1.0 0.00 0.00 0.00 94 1017.8
20260904123022 76 46 0.0 0.0 0.00 0.00 0.00 94 1017.8
20260904121522 76 46 0.0 1.0 0.00 0.00 0.00 94 1017.6
20260904120027 75 46 1.0 3.0 0.00 0.00 0.00 94 1017.5
20260904114520 75 340 0.0 0.0 0.00 0.00 0.00 93 1017.3
20260904113017 75 340 0.0 2.0 0.00 0.00 0.00 93 1017.0
20260904111515 76 340 0.0 1.0 0.00 0.00 0.00 93 1016.9
20260904110015 76 340 3.0 4.0 0.00 0.00 0.00 93 1017.0
20260904104512 77 166 1.0 3.0 0.00 0.00 0.00 91 1016.8
20260904103010 77 166 0.0 1.0 0.00 0.00 0.00 92 1016.7
20260904101512 77 166 2.0 3.0 0.00 0.00 0.00 91 1016.8
20260904100008 78 166 0.0 0.0 0.00 0.00 0.00 91 1016.5
20260904094511 78 166 0.0 2.0 0.00 0.00 0.00 91 1016.5
20260904093008 78 166 0.0 2.0 0.00 0.00 0.00 90 1016.4
20260904091504 78 166 0.0 3.0 0.00 0.00 0.00 90 1016.1
20260904090004 78 166 0.0 0.0 0.00 0.00 0.00 90 1016.1
20260904084503 78 166 0.0 0.0 0.00 0.00 0.00 89 1016.0
20260904083001 78 166 0.0 1.0 0.00 0.00 0.00 91 1015.9
20260904081600 78 166 0.0 1.0 0.00 0.00 0.00 90 1015.8
20260904080059 78 166 0.0 2.0 0.00 0.00 0.00 90 1016.0
20260904074601 78 166 0.0 2.0 0.00 0.00 0.00 90 1016.0
20260904073100 78 166 1.0 3.0 0.00 0.00 0.00 90 1016.0
20260904071559 79 166 1.0 3.0 0.00 0.00 0.00 89 1016.1
20260904070054 79 166 3.0 4.0 0.00 0.00 0.00 89 1016.0
20260904064552 79 166 0.0 0.0 0.00 0.00 0.00 88 1016.3
20260904063052 80 166 0.0 1.0 0.00 0.00 0.00 86 1016.4
20260904061550 81 166 0.0 0.0 0.00 0.00 0.00 84 1016.2
20260904060044 82 166 0.0 2.0 0.00 0.00 0.00 83 1016.3
20260904054546 82 166 0.0 2.0 0.00 0.00 0.00 83 1016.3
20260904053052 82 166 0.0 1.0 0.00 0.00 0.00 83 1016.2
20260904051538 82 166 0.0 2.0 0.00 0.00 0.00 82 1016.4
20260904050036 83 166 0.0 1.0 0.00 0.00 0.00 83 1016.4
20260904044536 83 166 0.0 0.0 0.00 0.00 0.00 82 1016.3
20260904043035 83 166 0.0 0.0 0.00 0.00 0.00 81 1016.4
20260904041539 84 166 0.0 2.0 0.00 0.00 0.00 81 1016.4
20260904040037 84 166 0.0 1.0 0.00 0.00 0.00 81 1016.4